Location: Estes P
(40.3770°N, 105.5210°W)
Time: 06:08:53
(UTC-07:00)

N. Korean satellite - Visible Passes

Search period start: 22 February 2018 00:00
Search period end: 04 March 2018 00:00
Orbit: 459 x 514 km, 97.2° (Epoch: 21 February)

Date Brightness Start Highest point End Pass type
(mag) Time Alt. Az. Time Alt. Az. Time Alt. Az.
22 Feb 10.1 05:50:12 10° NE 05:52:41 17° E 05:55:11 10° SE visible
24 Feb 9.7 18:45:14 10° SW 18:47:46 19° W 18:50:20 10° NW visible
25 Feb 8.9 06:11:42 10° NNE 06:15:03 32° E 06:18:25 10° SSE visible
25 Feb 8.2 18:20:39 10° SSW 18:23:54 38° W 18:27:12 10° NNW visible
26 Feb 10.1 05:48:43 10° NE 05:51:11 17° E 05:53:39 10° SE visible
28 Feb 9.6 18:43:35 10° SW 18:46:12 20° W 18:48:51 10° NW visible
01 Mar 8.1 18:19:02 10° S 18:22:19 40° W 18:25:41 10° NNW visible
02 Mar 10.1 05:47:13 10° NE 05:49:38 16° E 05:52:03 10° SE visible
03 Mar 10.5 19:07:51 10° WSW 19:08:33 10° W 19:09:16 10° WNW visible
